Location: Greenwich
(51.4790°N, 0.0090°E)
Time: 13:51:00
(UTC+01:00)

Altair - Pass Details

Date: 23 June 2025
Orbit: 1502 x 1682 km, 47.2° (Epoch: 19 July)

Event Time Altitude Azimuth Distance (km) Brightness Sun altitude
Rises 02:57:44 0° 274° (W) 4,670 9.8 -10.9°
Reaches altitude 10° 03:00:45 10° 271° (W) 3,704 9.3 -10.7°
Maximum altitude 03:09:57 64° 193° (SSW) 1,709 7.5 -10.0°
Drops below altitude 10° 03:19:31 10° 115° (ESE) 3,836 9.7 -9.3°
Sets 03:22:42 0° 113° (ESE) 4,844 10.2 -9.0°
